Weather History for Clinton, MO

Change the Weather History Date:

Sunday, April 21, 2013

  Actual Average (KSZL) Record (KSZL)
Temperature  
Mean Temperature 60 °F -  
Max Temperature 69 °F 65 °F 82 °F (2005)
Min Temperature 50 °F 46 °F 35 °F (2012)
Degree Days  
Heating Degree Days 6    
Growing Degree Days 10 (Base 50)    
Moisture  
Dew Point 39 °F    
Average Humidity 48    
Maximum Humidity 71    
Minimum Humidity 33    
Precipitation  
Precipitation 0.00 in - - ()
Sea Level Pressure  
Sea Level Pressure 30.21 in    
Wind  
Wind Speed 9 mph (SSE)    
Max Wind Speed 18 mph    
Max Gust Speed 24 mph    
Visibility 10 miles    
Events      
Averages and records for this station are not official NWS values.
T = Trace of Precipitation, MM = Missing Value Source: NWS Daily Summary

Daily Weather History Graph

Daily Weather History Graph

Search for Another Location

Airport:

Trip Planner

Search our weather history database for the weather conditions in past years. The results will help you decide how hot, cold, wet, or windy it might be!

Date:

Astronomy

Apr. 21, 2013 Rise Set
Actual Time 6:30 AM CDT 7:57 PM CDT
Civil Twilight 6:02 AM CDT 8:24 PM CDT
Nautical Twilight 5:29 AM CDT 8:58 PM CDT
Astronomical Twilight 4:54 AM CDT 9:33 PM CDT
Moon 3:46 PM CDT (4/21) 3:49 AM CDT (4/21)
Length of Visible Light 14h 22m
Length of Day
13h 26m
Waxing Gibbous, 80% of the Moon is Illuminated
Apr 21
Waxing Gibbous
Apr 25
Full
May 2
Last Quarter
May 9
New
May 17
First Quarter

Hourly Weather History & Observations

Time (CDT) Temp. Dew Point Humidity Pressure Visibility Wind Dir Wind Speed Gust Speed Precip Events Conditions
12:15 AM 53.6 °F 33.8 °F 47% 30.21 in 10.0 mi East 8.1 mph - N/A   Clear
12:35 AM 53.6 °F 33.8 °F 47% 30.21 in 10.0 mi East 6.9 mph - N/A   Clear
12:55 AM 51.8 °F 33.8 °F 50% 30.21 in 10.0 mi ESE 6.9 mph - N/A   Clear
1:15 AM 51.8 °F 33.8 °F 50% 30.21 in 10.0 mi East 6.9 mph - N/A   Clear
1:35 AM 51.8 °F 33.8 °F 50% 30.21 in 10.0 mi East 6.9 mph - N/A   Clear
4:35 AM 51.8 °F 37.4 °F 58% 30.22 in 10.0 mi SE 9.2 mph - N/A   Clear
4:55 AM 51.8 °F 39.2 °F 62% 30.22 in 10.0 mi SE 9.2 mph - N/A   Clear
5:15 AM 51.8 °F 39.2 °F 62% 30.22 in 10.0 mi SE 8.1 mph - N/A   Clear
5:35 AM 50.0 °F 39.2 °F 66% 30.23 in 10.0 mi Calm Calm - N/A   Clear
5:55 AM 50.0 °F 39.2 °F 66% 30.23 in 10.0 mi SE 5.8 mph - N/A   Clear
6:15 AM 50.0 °F 39.2 °F 66% 30.24 in 10.0 mi SE 5.8 mph - N/A   Clear
6:55 AM 51.8 °F 41.0 °F 67% 30.26 in 10.0 mi SE 5.8 mph - N/A   Clear
7:35 AM 51.8 °F 42.8 °F 71% 30.27 in 10.0 mi SSE 8.1 mph - N/A   Clear
7:55 AM 51.8 °F 42.8 °F 71% 30.27 in 10.0 mi SE 9.2 mph - N/A   Clear
8:15 AM 53.6 °F 42.8 °F 67% 30.27 in 10.0 mi SE 9.2 mph - N/A   Clear
8:35 AM 53.6 °F 42.8 °F 67% 30.27 in 10.0 mi SE 11.5 mph - N/A   Clear
8:55 AM 55.4 °F 42.8 °F 63% 30.27 in 10.0 mi SSE 11.5 mph - N/A   Clear
9:15 AM 55.4 °F 42.8 °F 63% 30.28 in 10.0 mi SE 11.5 mph - N/A   Clear
9:35 AM 57.2 °F 42.8 °F 59% 30.28 in 10.0 mi SE 11.5 mph 16.1 mph N/A   Partly Cloudy
9:55 AM 59.0 °F 42.8 °F 55% 30.27 in 10.0 mi SE 15.0 mph - N/A   Clear
10:15 AM 60.8 °F 42.8 °F 52% 30.28 in 10.0 mi SSE 12.7 mph 20.7 mph N/A   Mostly Cloudy
10:35 AM 60.8 °F 42.8 °F 52% 30.28 in 10.0 mi SSE 12.7 mph - N/A   Overcast
10:55 AM 62.6 °F 42.8 °F 48% 30.28 in 10.0 mi SSE 16.1 mph 19.6 mph N/A   Overcast
11:15 AM 62.6 °F 42.8 °F 48% 30.28 in 10.0 mi South 12.7 mph - N/A   Scattered Clouds
11:35 AM 62.6 °F 42.8 °F 48% 30.28 in 10.0 mi South 12.7 mph - N/A   Scattered Clouds
11:55 AM 62.6 °F 42.8 °F 48% 30.27 in 10.0 mi South 13.8 mph - N/A   Partly Cloudy
12:15 PM 64.4 °F 42.8 °F 45% 30.26 in 10.0 mi South 15.0 mph - N/A   Partly Cloudy
12:35 PM 64.4 °F 39.2 °F 40% 30.25 in 10.0 mi South 12.7 mph 24.2 mph N/A   Clear
12:55 PM 66.2 °F 41.0 °F 40% 30.24 in 10.0 mi South 11.5 mph 20.7 mph N/A   Partly Cloudy
1:15 PM 66.2 °F 39.2 °F 37% 30.23 in 10.0 mi SSE 18.4 mph 23.0 mph N/A   Clear
1:35 PM 68.0 °F 39.2 °F 35% 30.22 in 10.0 mi South 16.1 mph 21.9 mph N/A   Clear
1:55 PM 68.0 °F 39.2 °F 35% 30.21 in 10.0 mi SSE 16.1 mph 21.9 mph N/A   Clear
2:15 PM 68.0 °F 41.0 °F 37% 30.20 in 10.0 mi South 15.0 mph 21.9 mph N/A   Clear
2:35 PM 68.0 °F 39.2 °F 35% 30.20 in 10.0 mi SSE 17.3 mph 24.2 mph N/A   Partly Cloudy
2:55 PM 68.0 °F 39.2 °F 35% 30.19 in 10.0 mi South 12.7 mph 20.7 mph N/A   Mostly Cloudy
3:15 PM 69.8 °F 39.2 °F 33% 30.18 in 10.0 mi South 16.1 mph 21.9 mph N/A   Scattered Clouds
3:35 PM 69.8 °F 39.2 °F 33% 30.17 in 10.0 mi South 18.4 mph 24.2 mph N/A   Partly Cloudy
3:55 PM 69.8 °F 39.2 °F 33% 30.16 in 10.0 mi South 13.8 mph 21.9 mph N/A   Scattered Clouds
4:15 PM 69.8 °F 41.0 °F 35% 30.15 in 10.0 mi South 15.0 mph - N/A   Scattered Clouds
4:55 PM 69.8 °F 39.2 °F 33% 30.15 in 10.0 mi South 11.5 mph 16.1 mph N/A   Partly Cloudy
5:15 PM 69.8 °F 39.2 °F 33% 30.14 in 10.0 mi SSW 10.4 mph - N/A   Clear
5:35 PM 69.8 °F 39.2 °F 33% 30.14 in 10.0 mi South 6.9 mph - N/A   Partly Cloudy
5:55 PM 68.0 °F 39.2 °F 35% 30.14 in 10.0 mi South 15.0 mph - N/A   Partly Cloudy
6:15 PM 68.0 °F 37.4 °F 33% 30.14 in 10.0 mi South 9.2 mph - N/A   Clear
6:35 PM 68.0 °F 37.4 °F 33% 30.14 in 10.0 mi South 6.9 mph - N/A   Clear
6:55 PM 66.2 °F 37.4 °F 35% 30.14 in 10.0 mi South 8.1 mph - N/A   Clear
7:15 PM 66.2 °F 39.2 °F 37% 30.15 in 10.0 mi South 8.1 mph - N/A   Clear
7:35 PM 64.4 °F 39.2 °F 40% 30.15 in 10.0 mi South 8.1 mph - N/A   Clear
7:55 PM 62.6 °F 39.2 °F 42% 30.16 in 10.0 mi South 9.2 mph - N/A   Partly Cloudy
8:15 PM 60.8 °F 39.2 °F 45% 30.16 in 10.0 mi South 6.9 mph - N/A   Partly Cloudy
8:35 PM 60.8 °F 39.2 °F 45% 30.16 in 10.0 mi SSE 6.9 mph - N/A   Partly Cloudy
8:55 PM 59.0 °F 39.2 °F 48% 30.16 in 10.0 mi SSE 8.1 mph - N/A   Partly Cloudy
9:15 PM 59.0 °F 39.2 °F 48% 30.17 in 10.0 mi SE 5.8 mph - N/A   Clear
9:35 PM 57.2 °F 39.2 °F 51% 30.18 in 10.0 mi SSE 5.8 mph - N/A   Clear
9:55 PM 57.2 °F 39.2 °F 51% 30.18 in 10.0 mi Calm Calm - N/A   Clear
10:15 PM 57.2 °F 37.4 °F 48% 30.18 in 10.0 mi SE 6.9 mph - N/A   Clear
10:35 PM 57.2 °F 37.4 °F 48% 30.18 in 10.0 mi SSE 6.9 mph - N/A   Partly Cloudy
10:55 PM 57.2 °F 37.4 °F 48% 30.18 in 10.0 mi SSE 8.1 mph - N/A   Scattered Clouds
11:15 PM 57.2 °F 37.4 °F 48% 30.18 in 10.0 mi SSE 9.2 mph - N/A   Mostly Cloudy
11:35 PM 57.2 °F 37.4 °F 48% 30.18 in 10.0 mi SSE 11.5 mph - N/A   Mostly Cloudy
11:55 PM 57.2 °F 37.4 °F 48% 30.18 in 10.0 mi SSE 9.2 mph - N/A   Scattered Clouds